Theta_e
339 340 340 339 339 339 341 341 340 340 341 338 338 336 332 331 326 323 323 325 325 330 330 328 334 337 339 338 338 338 338 338 337 338 338 339 341 338 335 335 333 333 333 332 331 332 332 332 331 331 332 331 332 332 332 332 333 333 333 334 334 335 336 337 339 341 343 344 346 347 349 351 353 356
342 341 340 339 337 340 340 338 339 340 340 339 339 338 337 335 329 327 325 326 331 329 333 331 330 336 338 338 338 338 338 338 339 340 340 339 340 335 335 334 334 333 332 331 330 331 331 331 331 331 330 330 331 331 331 332 332 333 333 333 334 334 334 336 336 338 340 343 344 345 348 349 351 352
341 340 338 339 338 340 339 339 338 340 340 339 340 339 339 336 335 331 328 324 330 334 330 333 335 333 337 336 337 337 338 338 337 338 340 341 338 338 337 334 333 332 331 330 330 329 328 328 328 328 328 329 330 330 331 332 332 332 332 332 332 332 333 334 335 336 337 339 342 343 345 347 349 350
340 339 338 338 339 339 339 339 338 338 340 341 340 340 341 341 342 337 333 328 326 333 331 333 335 336 336 337 336 337 338 339 340 341 340 342 340 340 340 338 334 332 331 330 329 327 326 327 328 328 328 329 330 330 331 330 331 331 331 331 332 332 332 332 333 334 334 336 338 341 343 345 347 349
339 339 339 339 339 340 339 338 337 337 338 340 340 342 341 339 341 339 337 331 327 331 334 333 333 335 337 334 337 335 336 337 338 339 340 341 341 340 339 339 336 334 331 329 328 327 326 326 327 327 328 329 330 330 330 330 330 330 329 329 330 330 330 329 330 332 333 334 335 338 340 342 344 346
339 339 339 339 339 340 340 339 338 338 336 336 335 336 339 336 334 336 334 334 328 327 331 331 336 334 335 332 336 334 333 334 336 337 338 338 338 337 338 338 337 334 332 328 327 326 325 326 326 326 327 327 328 328 328 328 327 327 326 326 326 327 326 326 327 329 330 332 333 334 337 339 341 343
339 339 339 338 339 339 338 339 339 338 337 337 336 335 336 334 334 335 337 336 330 328 329 332 331 332 334 333 334 336 336 337 337 336 336 336 336 337 337 337 337 334 332 329 327 325 325 325 325 326 326 326 325 325 325 324 325 324 323 323 324 324 324 324 325 327 328 330 332 333 335 337 339 341
338 337 338 337 337 337 337 338 338 337 336 336 336 337 338 338 338 339 337 336 335 332 328 331 331 331 331 332 335 336 336 335 336 335 335 336 336 336 336 336 335 333 330 329 327 326 326 325 324 323 323 323 322 321 320 321 322 322 321 321 321 321 321 321 322 325 325 326 328 331 333 335 336 336
339 337 337 337 337 338 336 336 335 335 336 336 336 335 335 336 337 339 337 337 337 335 331 330 333 332 332 333 334 335 332 333 336 336 334 334 334 334 333 333 334 332 329 329 328 327 327 326 325 324 323 323 322 321 320 320 320 320 320 320 320 320 321 321 320 322 322 323 324 325 327 330 333 335
339 338 338 338 338 337 336 336 335 336 336 337 336 336 335 336 336 336 337 339 337 334 332 332 332 334 332 332 334 336 336 331 329 330 332 333 332 332 331 330 330 332 332 333 332 331 330 328 325 324 324 324 322 322 321 320 319 318 318 316 315 317 318 319 320 321 320 321 323 324 325 328 329 331
338 338 338 338 338 337 338 336 335 336 336 335 336 337 336 337 338 337 338 337 334 333 331 332 332 331 331 333 332 335 334 333 332 330 327 326 329 331 330 329 331 331 331 331 330 330 329 328 329 325 324 324 323 323 322 321 319 318 316 315 314 314 314 315 317 318 318 319 320 321 321 323 327 330
337 337 336 335 336 337 337 337 338 338 337 338 338 337 338 338 338 337 335 334 332 331 330 329 330 331 329 330 336 331 330 330 329 329 325 323 325 327 330 331 330 331 331 330 330 328 328 329 328 324 324 325 324 323 323 323 323 321 318 317 318 317 316 315 316 316 316 316 316 317 319 319 323 326
338 338 337 336 336 338 340 342 342 341 341 339 335 337 338 337 338 337 334 333 331 332 330 327 329 330 330 329 330 330 327 324 324 328 329 327 328 328 326 329 332 331 328 329 329 329 330 327 328 329 330 331 329 328 327 328 329 325 320 319 320 320 319 317 316 317 316 316 316 315 316 319 321 325
338 338 338 338 341 339 341 343 342 336 333 332 336 338 339 337 337 337 335 332 331 330 327 326 326 327 325 327 330 329 327 329 331 329 329 327 327 327 326 327 330 331 329 327 327 329 330 328 328 329 328 329 332 330 331 331 329 326 322 321 321 320 320 318 317 317 316 316 316 315 315 316 320 322
339 339 339 341 343 345 341 342 337 335 332 331 329 327 328 331 338 333 329 328 329 329 327 327 326 325 325 327 330 329 328 331 329 328 329 328 325 322 320 319 326 332 329 327 326 326 329 329 327 329 329 329 329 330 330 327 327 324 323 322 321 321 321 320 320 319 317 316 316 315 315 316 317 319
340 339 339 341 343 342 342 346 346 340 333 329 329 328 326 326 324 325 332 330 328 328 326 326 327 327 326 327 328 327 329 328 326 328 327 325 323 322 321 321 320 327 330 326 325 324 329 331 328 327 327 328 330 328 326 324 325 324 322 322 322 321 321 321 321 321 321 320 319 319 319 318 319 319
342 343 343 344 344 343 342 340 341 341 342 336 329 329 328 326 324 323 323 323 331 331 329 328 327 327 328 328 329 330 331 330 325 325 323 324 323 323 321 321 322 325 329 325 323 321 325 328 325 324 327 328 328 327 324 324 324 323 322 322 322 321 321 321 321 321 320 320 320 320 319 318 318 318
344 345 346 343 341 343 344 344 343 341 337 337 337 337 336 334 332 327 321 320 320 326 330 331 328 329 332 328 331 334 331 326 324 322 321 324 322 322 321 322 323 326 327 323 322 320 322 326 324 323 326 328 328 326 324 322 321 321 321 320 320 319 319 319 320 320 319 319 319 319 318 317 317 317
345 344 343 343 342 342 340 340 339 339 337 336 334 334 332 332 332 332 330 331 333 332 331 331 330 330 330 330 330 330 329 328 327 326 325 324 324 323 324 323 324 324 327 326 324 318 322 325 323 323 324 325 324 326 323 322 321 321 319 320 320 319 319 319 319 319 319 318 318 317 317 316 316 315
346 345 344 343 340 339 338 333 328 332 337 335 333 331 331 332 332 332 333 326 328 330 331 331 331 330 328 318 325 326 324 325 327 325 325 325 324 321 318 317 320 320 325 327 323 319 320 325 322 322 324 324 323 325 326 322 320 319 319 320 319 319 317 317 318 318 318 318 318 317 315 314 313 313
341 338 338 339 336 335 337 328 320 323 326 331 331 330 330 330 330 329 332 324 322 321 317 315 314 313 313 313 312 311 311 318 321 322 320 318 319 317 315 316 317 319 321 323 324 321 319 323 323 322 322 323 322 323 324 325 322 320 319 318 318 318 317 317 316 316 317 318 317 317 317 314 313 314
339 337 334 332 334 335 335 316 317 317 325 329 330 330 328 328 328 328 328 329 333 317 315 314 314 315 315 314 313 312 311 311 312 322 318 319 318 316 316 314 316 316 318 320 324 322 320 323 324 321 321 322 323 323 324 323 323 321 320 319 318 317 317 317 315 316 316 317 317 317 315 314 314 322
337 336 335 332 331 333 326 311 315 314 321 328 329 330 328 326 326 327 328 326 326 327 327 328 329 327 322 327 330 329 320 315 317 325 324 321 318 315 315 314 315 314 316 321 325 320 320 320 321 321 317 316 319 322 322 322 324 326 327 327 328 322 319 317 315 313 314 315 316 316 314 313 314 326
336 336 336 334 325 317 311 310 309 311 312 325 329 330 327 326 324 329 328 327 326 325 324 324 324 325 326 326 327 325 324 323 328 323 322 322 319 317 315 315 315 313 315 321 322 320 321 321 319 322 318 313 311 318 321 321 323 325 327 328 328 325 323 318 316 312 312 313 313 314 314 313 315 327
332 330 331 334 320 310 309 307 306 305 308 312 323 328 327 327 325 320 327 325 324 324 324 323 323 323 323 323 323 322 323 320 320 320 320 319 319 317 315 313 312 313 316 320 320 323 320 321 319 321 319 318 316 315 318 320 322 325 328 330 330 331 332 332 327 329 315 311 310 311 312 313 313 322
333 333 332 334 318 308 307 306 304 303 305 309 317 325 311 308 311 323 325 325 324 322 321 320 320 320 319 319 320 319 319 318 319 318 318 317 317 318 317 315 313 312 315 321 318 323 321 321 320 318 319 318 316 316 315 317 321 324 327 330 331 333 334 332 333 332 333 328 324 317 319 313 314 315
331 334 334 327 308 306 302 301 301 301 303 306 315 305 306 308 305 312 320 322 321 321 320 319 319 318 318 318 316 316 317 317 319 317 317 316 317 319 319 320 319 318 320 323 325 326 324 322 324 322 320 319 315 315 315 316 319 326 326 328 331 332 334 334 332 334 332 331 330 316 314 313 313 314
333 333 332 323 303 299 295 297 301 302 305 317 304 303 307 306 309 317 321 320 320 319 319 318 317 317 316 316 315 315 317 316 318 317 318 319 320 320 319 320 320 322 324 325 325 326 327 323 325 327 324 319 315 313 313 318 322 324 327 330 330 331 332 335 334 334 332 334 333 330 326 324 320 318
331 311 301 299 300 300 299 301 303 305 306 304 304 305 304 309 318 321 319 319 319 318 316 315 316 315 315 315 315 317 318 318 318 319 318 318 319 319 320 320 322 325 325 325 327 327 327 325 326 325 323 321 317 316 316 318 322 323 327 329 330 335 336 336 337 333 335 334 335 333 329 327 323 322
306 305 305 303 303 304 307 316 323 325 324 308 307 307 310 317 319 320 318 319 317 316 314 313 312 312 313 313 316 317 318 317 315 315 315 315 315 316 316 317 319 323 324 326 327 328 327 325 325 325 322 320 319 317 319 319 321 325 327 326 332 332 333 336 339 341 335 334 336 336 334 332 327 325
319 314 314 317 313 313 315 317 315 318 314 315 313 316 317 319 319 319 318 317 315 313 311 311 312 313 314 316 316 315 313 313 313 316 315 313 313 315 316 317 316 318 323 326 326 325 324 324 325 324 320 318 319 320 323 325 324 327 326 330 333 330 336 340 340 339 344 341 339 338 337 335 332 328
327 325 316 314 320 321 321 320 321 321 322 321 320 320 320 319 318 314 310 307 312 315 316 314 314 313 314 312 311 311 311 311 312 315 313 312 312 315 316 315 315 316 320 323 324 325 325 324 325 324 322 320 318 321 323 325 324 326 327 328 329 332 331 337 338 341 338 338 340 336 336 335 332 330
327 326 322 322 320 320 320 320 321 320 319 319 319 319 318 318 316 315 314 314 313 313 313 311 311 310 311 310 310 310 309 311 312 313 312 314 314 316 315 313 314 314 316 318 321 322 323 324 326 324 322 322 322 320 320 319 320 321 321 323 326 328 331 338 340 339 340 339 337 337 335 337 337 334
323 323 321 320 319 319 319 318 318 318 318 319 318 318 314 313 314 313 311 311 311 312 310 310 310 310 309 308 308 308 309 310 310 310 310 312 314 314 313 313 314 316 317 318 319 319 320 322 323 323 322 323 321 318 319 319 317 319 320 323 325 326 330 334 340 340 340 337 332 333 337 334 337 338
320 321 320 319 319 318 318 317 317 318 317 316 316 316 315 314 314 311 309 310 309 308 308 309 309 308 307 307 308 308 308 308 308 309 310 311 313 312 313 314 315 316 317 318 319 319 319 319 320 318 318 318 319 323 320 321 320 319 320 321 324 325 328 334 338 335 336 334 336 333 334 337 338 339
323 322 320 319 318 318 317 316 317 316 316 315 315 315 313 312 311 309 309 309 308 308 308 308 306 306 307 307 308 307 307 306 307 307 308 309 309 311 313 314 315 315 316 317 319 319 319 319 319 316 313 312 312 312 318 320 319 322 318 317 321 323 325 329 334 333 330 331 333 336 332 334 336 338
320 320 319 318 320 319 317 317 317 316 315 314 313 313 312 311 310 309 311 311 311 310 308 307 307 307 306 307 306 306 306 306 306 306 307 307 308 310 311 313 313 314 314 316 318 319 321 318 319 317 313 310 309 309 313 321 317 314 322 319 318 320 321 325 329 330 330 332 333 336 337 338 338 339
318 319 318 317 317 318 317 316 315 314 315 313 312 311 311 310 310 311 312 311 308 307 306 306 306 306 306 305 306 306 306 306 306 306 306 307 306 308 310 311 311 312 313 317 318 318 319 318 317 316 313 310 308 309 310 315 319 319 310 317 315 316 320 322 324 328 331 332 333 334 335 337 338 341
318 318 318 317 317 318 316 316 314 313 313 312 311 309 310 310 309 309 309 308 307 307 306 306 306 306 305 307 306 306 305 305 305 305 306 305 306 307 309 311 311 311 313 315 316 316 317 317 315 315 314 312 310 311 313 313 316 321 318 304 315 317 316 315 318 326 330 328 331 335 340 344 340 330
318 318 318 318 317 317 316 315 314 314 312 311 309 309 307 309 308 308 307 307 307 307 306 305 306 304 306 306 305 306 305 306 306 306 306 305 305 307 309 310 310 312 312 311 312 313 314 314 315 315 315 316 316 319 319 319 321 322 322 320 304 310 313 313 316 320 326 333 334 332 330 334 332 337
317 316 317 316 317 316 314 313 313 312 311 310 310 306 307 309 307 307 306 304 304 305 306 306 306 307 306 306 306 305 305 305 306 305 306 305 305 306 307 308 310 311 310 310 310 311 312 315 318 315 320 320 320 321 319 313 311 312 316 320 313 309 306 310 313 315 316 321 335 336 332 330 331 332
317 316 316 316 315 315 313 312 312 310 311 309 308 307 309 309 309 305 302 305 310 310 307 306 307 305 305 305 305 305 305 305 305 304 306 305 305 306 307 309 310 311 310 308 310 311 314 319 320 319 318 318 317 313 311 310 310 311 314 317 321 316 314 309 309 310 312 313 322 332 335 334 334 332
315 315 314 314 315 314 313 311 311 309 309 308 307 308 307 307 307 306 306 306 307 306 306 305 305 305 305 306 305 305 305 306 305 305 306 306 305 305 306 309 310 311 311 311 312 313 315 317 318 317 317 316 314 314 311 313 313 312 312 314 317 321 324 318 316 313 312 310 309 310 313 323 333 331
315 314 314 314 313 313 312 311 309 309 309 309 307 306 306 306 306 305 306 305 305 305 305 305 305 305 306 305 305 305 305 305 305 306 306 306 306 306 306 308 310 312 311 311 311 312 314 315 317 318 313 312 313 312 311 312 312 312 312 314 317 318 318 321 323 319 318 315 311 310 310 309 309 309
314 314 314 313 312 311 311 311 309 308 307 306 305 304 305 304 303 303 304 305 305 305 305 305 304 305 305 305 304 303 304 302 304 306 306 306 306 306 306 308 310 310 310 310 310 311 313 313 315 318 315 314 314 312 313 314 313 312 312 311 312 315 317 317 317 318 319 321 314 311 311 311 312 311
Wind_Speed
5 5 6 6 5 5 5 5 5 5 5 5 5 6 6 6 8 9 10 9 9 7 7 7 5 5 5 6 6 6 7 7 8 8 9 9 9 10 8 10 10 11 12 13 14 13 13 12 13 14 14 13 13 13 14 14 14 15 15 15 16 16 17 17 17 18 18 17 16 16 18 19 21 22
5 6 6 6 6 5 5 5 6 5 5 6 6 6 7 6 8 7 9 10 7 7 7 7 7 5 5 6 8 8 9 9 9 10 10 10 10 10 7 9 12 13 14 14 15 15 14 13 12 13 13 13 13 14 14 15 15 15 16 16 16 17 16 15 17 18 19 19 19 18 18 19 20 20
5 5 6 5 6 5 5 6 6 5 6 6 6 7 7 8 8 9 9 11 8 6 7 7 8 8 7 9 9 8 8 9 10 10 10 11 12 11 12 13 14 15 16 15 15 15 15 15 14 14 14 13 14 14 15 15 15 15 16 17 18 17 17 16 16 18 19 20 20 20 19 20 20 21
5 6 6 6 6 5 5 6 6 6 6 6 7 7 7 7 7 7 8 10 13 10 9 8 9 10 9 8 10 9 9 8 10 11 11 11 13 11 11 14 16 17 16 16 15 16 16 16 16 15 15 15 15 16 15 15 15 16 17 17 18 19 18 17 17 18 19 20 20 21 21 21 22 22
6 6 7 8 8 7 7 6 7 7 6 7 7 7 7 8 7 8 8 10 11 10 9 8 9 9 10 9 9 10 10 10 9 9 10 11 11 11 11 10 12 13 16 16 16 16 16 17 17 16 16 16 16 17 17 17 17 16 17 17 17 17 18 18 17 17 20 20 21 22 22 22 22 22
7 7 8 9 8 7 8 8 8 7 7 7 8 8 8 8 9 8 9 10 10 11 10 10 9 10 9 10 9 10 10 11 10 11 10 9 10 10 10 10 10 11 11 15 15 15 16 16 17 17 18 18 18 17 18 18 18 18 18 18 18 18 18 18 19 18 19 20 22 22 23 23 22 23
8 9 9 9 8 7 8 8 7 8 8 8 8 9 8 9 10 9 9 9 11 11 10 9 11 10 10 10 9 10 9 9 10 10 10 10 9 9 10 10 9 11 9 9 12 13 14 16 17 18 19 19 18 19 18 19 19 19 19 18 19 19 19 19 20 20 20 20 22 23 23 24 24 23
8 9 9 9 9 8 8 7 7 7 8 8 8 9 9 9 10 9 9 10 10 10 11 9 10 9 10 10 10 10 9 10 10 9 9 10 10 10 10 10 10 11 10 9 12 15 16 17 18 19 19 20 20 19 19 19 19 20 20 19 19 20 20 20 21 22 22 22 22 23 24 25 25 23
9 9 9 9 8 8 8 7 8 8 9 8 8 8 8 8 8 8 9 9 9 10 12 10 9 10 11 10 11 11 11 10 9 9 10 9 9 9 10 9 10 13 16 18 18 18 18 18 19 20 20 21 21 20 20 21 21 21 22 22 22 21 22 22 22 23 23 23 23 23 24 25 25 25
9 9 10 9 9 9 9 8 8 7 8 8 9 9 8 8 9 9 9 9 9 10 10 10 10 9 10 10 10 10 10 10 10 9 9 10 10 9 10 10 10 10 10 10 10 12 14 18 20 20 20 20 21 22 22 22 22 22 23 23 23 24 24 24 24 24 24 23 24 24 24 24 25 25
11 11 10 9 9 9 9 9 8 8 9 8 9 9 9 8 9 9 8 8 9 9 9 8 7 8 9 9 12 10 11 11 9 10 10 11 9 9 10 11 10 10 12 14 16 15 17 18 17 17 19 21 22 22 22 23 24 23 23 24 25 25 25 25 25 25 25 24 24 24 24 24 25 25
11 11 10 10 9 10 9 9 9 9 9 8 9 8 8 8 9 10 10 10 10 10 10 10 10 9 9 11 9 8 12 10 10 9 9 11 12 11 10 10 11 11 12 12 14 15 15 15 17 20 21 24 24 24 23 25 25 25 25 24 25 26 27 26 26 26 25 25 25 24 24 24 25 25
11 10 10 10 10 10 10 10 9 8 6 7 9 9 9 10 10 11 10 10 11 11 10 11 10 10 9 10 11 10 10 11 11 9 9 10 10 11 12 11 11 11 12 11 13 14 15 16 15 15 14 14 16 19 21 20 23 25 25 25 26 26 26 26 26 26 26 25 25 25 25 25 25 26
11 11 10 10 11 11 10 9 8 8 8 7 8 9 8 10 10 10 10 11 11 12 13 12 12 12 12 11 10 11 11 10 10 10 10 10 10 11 13 12 10 10 11 12 13 13 13 16 16 15 16 16 16 16 15 16 16 18 19 19 19 19 20 23 24 25 25 25 25 25 25 25 26 26
10 10 10 10 10 9 10 9 10 10 10 11 11 12 11 10 9 11 12 11 11 11 12 13 12 12 12 12 11 11 11 10 10 10 9 10 11 12 13 13 10 8 11 12 14 15 15 15 17 16 16 16 16 15 17 21 20 21 21 22 22 21 21 21 22 23 24 24 24 24 25 25 25 26
9 9 9 6 4 8 10 6 7 10 12 13 12 11 11 12 13 12 10 10 10 11 11 11 11 11 11 12 11 11 10 11 11 10 10 12 12 13 14 14 13 10 12 14 16 19 13 14 16 17 16 15 15 17 19 21 22 24 25 25 25 25 24 24 24 25 25 25 24 25 25 25 25 26
9 8 7 7 6 6 4 4 8 8 7 11 12 11 12 13 13 14 15 15 12 10 10 10 11 10 10 11 11 10 10 10 12 12 12 12 13 13 14 14 15 15 14 15 17 19 15 14 16 18 15 15 17 18 19 18 19 21 22 22 22 23 24 24 25 26 26 26 25 24 24 24 24 25
8 8 7 7 7 7 6 6 7 7 8 8 7 8 10 11 13 17 18 16 17 14 10 11 11 11 10 10 10 10 11 12 12 13 13 12 12 13 15 17 16 16 13 15 16 18 16 14 15 17 16 15 18 20 20 21 22 23 22 23 24 25 25 26 26 27 27 27 26 25 25 24 24 24
8 7 6 7 7 6 7 6 4 4 6 7 7 9 9 9 10 10 9 9 9 9 10 10 11 11 11 11 11 11 11 11 10 9 10 11 11 12 14 15 15 14 13 16 15 18 16 14 16 16 16 18 20 19 20 20 20 21 23 25 26 27 29 29 28 27 28 28 27 26 25 25 24 24
6 5 4 5 5 5 7 5 5 2 5 6 8 9 10 10 9 9 0 4 2 6 7 8 9 10 11 12 12 11 10 9 9 9 9 9 10 11 13 14 13 13 11 13 14 16 17 14 17 18 18 20 21 18 17 20 21 23 24 26 28 29 30 30 29 28 28 28 28 27 26 25 24 24
2 2 3 4 5 6 6 7 7 6 3 7 8 9 9 9 9 9 4 9 10 9 8 10 10 13 15 16 16 16 16 11 10 8 9 10 10 10 12 13 13 13 12 11 14 16 17 14 15 17 18 20 19 18 18 17 19 22 25 26 28 30 29 28 27 27 27 28 27 26 26 25 23 24
2 1 1 3 6 7 3 8 5 4 3 7 8 8 9 9 9 8 7 4 6 11 11 12 14 14 14 15 16 17 17 16 11 9 9 10 10 12 13 13 14 15 14 13 13 14 15 15 15 18 17 17 15 15 14 16 18 21 22 26 29 31 29 26 25 25 26 26 26 25 25 24 22 17
1 2 4 9 9 5 4 6 5 3 5 7 8 8 8 8 8 8 7 7 9 7 7 8 9 10 13 13 12 12 18 20 15 12 11 11 12 13 14 15 15 16 13 10 11 13 15 16 17 14 14 15 14 9 11 13 16 17 18 19 19 19 22 24 23 24 25 25 25 25 24 23 21 13
5 6 7 8 12 4 5 3 4 5 7 7 7 7 7 7 9 7 7 8 8 9 9 10 11 12 12 12 12 12 11 8 11 11 10 10 10 11 13 14 14 15 14 10 12 13 15 16 16 12 14 16 18 8 10 17 17 18 18 19 17 19 17 20 20 24 24 24 25 24 24 23 22 13
5 6 7 7 10 9 6 5 5 7 8 8 7 7 8 4 4 6 8 8 7 10 10 11 11 11 11 11 11 10 8 8 8 8 9 10 10 11 12 13 14 15 14 13 12 12 14 16 17 16 15 12 15 17 14 14 19 18 17 17 17 15 14 12 12 13 20 25 24 24 24 23 25 18
6 7 7 3 8 7 7 5 8 10 9 10 8 7 3 5 5 5 7 7 7 8 9 10 11 12 12 11 10 9 8 9 9 9 10 11 12 11 11 12 13 15 15 14 13 14 15 15 17 17 16 13 15 14 18 19 18 19 17 16 15 15 13 13 12 14 13 13 14 19 20 24 22 25
8 6 5 6 9 7 5 7 10 10 10 8 8 0 2 1 2 6 6 6 8 8 9 10 11 11 11 10 9 9 9 9 10 11 12 13 12 12 12 13 13 14 16 16 17 17 16 16 16 16 16 15 17 15 17 20 18 15 15 13 12 13 13 12 13 12 14 13 14 20 21 20 22 24
6 6 3 6 8 7 6 8 8 8 10 5 6 3 3 4 7 6 6 7 7 8 10 10 11 10 9 9 9 9 10 10 11 11 12 12 11 11 12 13 14 15 16 17 17 17 16 16 13 11 14 17 18 16 17 18 18 18 15 10 11 11 12 10 11 12 12 13 13 13 13 12 13 15
1 9 11 9 7 7 9 9 9 8 7 4 5 5 6 8 6 7 6 7 7 9 10 10 9 8 9 9 9 9 10 11 11 11 10 10 11 12 12 12 12 13 12 14 15 16 16 14 13 14 14 15 16 18 17 18 18 18 14 11 10 8 8 8 8 11 13 14 13 13 13 13 13 12
9 6 7 7 7 8 8 7 8 6 6 9 8 8 8 7 7 5 4 6 8 8 8 8 9 9 9 9 9 10 10 10 10 10 10 10 11 11 11 11 11 12 13 14 15 15 14 13 12 13 14 15 16 19 15 15 15 14 11 11 9 9 12 10 9 8 11 14 13 12 11 12 13 14
4 6 7 6 9 4 9 10 6 0 8 6 7 7 7 6 4 4 5 5 5 7 7 8 8 9 9 9 9 9 9 10 9 9 10 10 11 11 10 11 12 12 12 13 13 14 14 14 13 12 14 17 18 17 16 14 13 11 13 12 9 10 8 7 7 7 8 9 12 10 11 12 11 13
7 7 7 7 7 5 6 7 7 5 4 5 5 5 4 4 4 4 6 6 6 6 6 7 8 8 8 9 9 9 9 9 9 9 9 10 11 10 10 11 12 12 13 13 13 14 15 12 11 11 13 16 18 15 11 10 9 10 11 10 9 9 10 10 8 6 8 11 10 11 11 12 12 12
5 6 8 7 7 6 6 6 6 6 6 5 5 6 6 5 5 5 5 5 5 5 6 7 8 9 8 9 9 9 9 9 9 9 9 9 10 10 10 11 11 12 14 15 14 14 12 12 13 14 13 15 11 9 8 9 9 10 11 12 12 11 10 8 8 8 9 8 7 10 10 13 12 13
7 7 7 7 8 7 7 7 6 7 8 6 5 7 5 5 6 4 5 5 4 5 7 7 8 8 8 9 8 9 9 9 9 9 10 10 9 10 10 11 11 12 13 14 14 14 14 14 13 13 13 12 6 5 5 7 10 11 12 12 12 12 10 9 6 8 7 8 12 13 13 13 12 13
7 7 8 8 7 6 6 6 7 6 5 5 4 4 4 5 4 4 4 3 5 7 7 7 7 7 8 8 8 9 9 10 10 9 9 9 9 9 10 11 11 12 13 14 14 14 13 14 12 14 14 14 11 4 7 4 7 11 12 11 12 13 12 10 5 2 3 5 6 10 11 11 12 12
6 5 5 5 5 5 6 7 5 4 4 3 4 4 5 4 3 3 4 4 6 7 7 6 7 7 7 8 8 9 9 10 10 9 10 10 10 10 10 10 12 12 12 12 12 14 13 12 10 13 14 14 13 13 8 3 1 8 12 15 14 13 11 11 9 3 1 6 10 8 9 11 13 14
5 5 5 5 5 5 6 5 4 4 3 4 4 3 3 4 4 3 4 4 6 6 5 7 7 7 7 7 8 9 9 9 9 10 10 10 10 10 10 10 11 11 12 12 12 13 13 13 10 11 12 14 14 13 12 10 2 1 10 12 14 13 11 8 7 4 5 7 11 8 10 10 12 12
6 6 6 6 6 5 3 4 3 3 3 2 3 3 3 3 4 3 4 5 5 5 6 6 7 6 7 7 8 8 9 9 9 9 9 10 10 10 10 11 11 11 12 12 12 12 11 12 11 11 11 14 15 15 14 11 10 5 6 7 10 13 10 8 6 5 1 4 7 9 10 11 11 11
5 6 6 6 5 5 4 3 2 3 2 3 2 3 3 4 4 5 5 5 5 5 6 6 6 6 8 8 8 8 9 9 9 9 9 10 10 10 11 11 12 11 12 13 12 11 10 10 11 10 10 13 13 14 14 13 10 10 5 3 6 10 12 10 8 6 4 6 8 4 4 2 4 6
5 5 5 5 5 4 4 2 3 2 2 2 2 2 3 4 5 5 5 5 4 5 6 7 6 7 7 7 8 8 8 9 9 9 10 10 10 11 10 11 11 11 11 12 12 11 10 9 9 10 12 11 12 12 13 10 9 7 10 6 5 7 10 9 9 9 6 6 8 9 7 4 7 6
4 4 4 3 3 2 3 3 2 2 2 1 2 2 3 4 5 5 4 5 5 6 6 6 6 7 7 7 7 8 9 9 9 9 10 10 10 10 12 13 10 10 10 11 11 11 11 10 13 20 15 11 11 11 7 11 14 13 10 11 14 5 4 11 8 8 4 7 8 8 8 8 6 7
4 4 3 3 3 2 2 2 2 2 2 1 2 3 2 4 4 0 5 6 6 5 6 6 6 6 7 7 7 8 8 9 9 9 10 10 10 11 11 10 10 10 10 11 11 11 11 10 11 11 9 10 9 12 12 11 11 11 11 11 10 14 9 3 2 7 4 5 4 2 6 8 8 7
3 4 2 1 3 3 3 1 2 2 2 2 3 3 5 5 4 4 5 4 4 5 5 5 6 6 6 7 7 8 8 9 9 10 10 10 10 11 11 10 11 11 11 11 10 10 10 11 10 9 9 8 9 10 10 11 11 11 11 12 11 10 10 13 9 11 21 21 13 6 3 2 2 6
3 3 5 5 4 4 4 4 2 2 3 4 3 4 5 5 4 4 4 4 4 4 5 6 6 6 6 7 7 8 8 8 9 10 10 10 10 10 10 11 11 11 11 11 11 10 9 9 9 8 9 9 8 8 10 12 12 11 10 9 9 11 11 10 10 9 13 21 21 16 11 8 9 9
3 4 5 5 4 5 5 4 4 3 3 4 4 4 4 4 5 4 4 4 4 4 5 5 6 6 6 7 7 8 8 9 10 9 9 9 10 10 10 10 10 11 11 11 11 11 10 9 8 6 8 9 9 10 10 9 10 11 12 15 15 11 11 12 12 12 10 10 16 21 20 18 20 22
Wind_Direction
263 262 257 268 273 275 276 277 278 282 281 282 279 275 279 283 287 294 297 296 297 299 300 304 315 294 260 263 278 280 278 286 285 284 283 282 274 272 230 219 229 241 253 263 265 260 257 256 259 264 266 266 267 270 274 275 277 279 277 277 282 283 283 281 281 278 272 267 262 254 246 241 243 243
255 254 265 266 268 271 270 268 273 272 272 272 270 269 271 271 280 289 293 293 292 290 287 286 295 289 273 264 263 267 270 268 261 272 275 278 277 277 248 234 242 252 256 257 257 258 257 257 253 257 262 262 257 258 262 266 270 273 275 276 277 279 279 278 278 277 274 269 262 257 252 246 242 242
255 258 262 265 268 274 281 285 278 271 263 258 261 265 265 265 263 273 280 291 285 289 288 287 290 295 285 285 285 284 284 282 280 274 273 272 274 274 267 254 247 247 250 249 249 251 253 253 253 255 257 259 259 259 256 257 262 265 269 272 275 275 275 273 273 274 273 270 266 260 254 251 247 242
252 260 262 262 266 267 270 273 272 270 262 262 264 263 263 261 259 257 265 270 283 290 294 294 290 284 286 287 289 291 285 279 266 272 269 271 275 270 269 254 235 235 236 240 242 246 248 249 250 252 254 253 256 261 261 260 260 261 264 267 269 271 272 270 269 268 270 270 267 263 257 252 249 246
261 261 262 264 266 268 265 263 269 270 271 267 262 258 256 258 256 254 255 263 271 283 290 291 289 294 295 287 280 282 280 281 280 268 267 269 272 273 273 277 264 229 226 229 236 240 245 250 253 252 252 253 252 256 260 263 262 261 262 263 265 266 268 268 266 264 264 265 265 263 260 254 250 247
261 259 260 263 265 263 263 263 263 265 267 267 266 263 262 266 263 254 254 254 265 276 285 289 294 294 287 285 286 290 289 285 284 280 276 273 272 274 279 280 283 273 227 228 234 238 244 250 255 257 256 257 258 258 258 260 261 262 263 262 261 262 262 262 262 260 258 258 260 260 259 256 251 247
262 262 260 259 257 252 252 256 261 263 267 269 270 267 266 268 269 264 254 256 264 271 272 277 286 289 297 293 293 286 284 283 278 280 280 280 282 281 283 282 282 279 270 244 234 240 247 250 253 256 260 261 261 259 256 256 259 262 260 259 259 258 257 258 259 258 257 255 255 256 255 254 251 247
259 259 257 255 253 252 254 254 257 263 265 265 264 268 268 267 269 271 264 258 260 265 270 266 269 278 285 288 284 283 279 280 280 285 286 281 278 282 280 280 280 285 280 252 243 244 247 249 251 253 256 259 259 257 255 255 256 259 258 256 255 254 254 254 255 255 255 254 253 253 253 253 251 248
255 256 252 251 249 249 251 251 255 262 266 267 271 274 275 273 273 272 271 269 259 263 269 271 268 277 274 271 278 275 282 283 281 279 281 278 277 276 282 282 280 269 245 239 243 246 245 245 248 249 251 252 254 254 253 253 251 251 253 255 254 253 253 252 251 251 251 251 250 248 249 250 250 248
246 245 244 245 246 249 248 257 264 276 278 278 279 280 281 280 277 273 271 268 264 262 266 268 279 275 278 277 272 278 276 282 285 286 279 280 284 286 282 283 289 294 295 295 272 246 236 236 238 245 248 247 246 248 250 251 249 247 248 251 252 252 253 253 251 250 249 248 247 246 245 246 246 245
241 241 243 246 248 248 248 256 265 269 270 273 279 280 285 282 279 275 271 271 269 265 265 270 259 270 268 271 274 273 283 279 277 279 288 287 287 282 286 285 284 287 289 288 281 272 269 271 270 261 249 243 240 243 247 248 246 246 245 247 250 252 251 251 251 250 250 248 246 244 242 242 243 243
243 243 246 249 247 246 251 256 259 264 270 275 277 282 281 281 278 279 281 280 277 273 272 274 282 278 286 282 275 279 274 273 261 269 291 293 295 293 289 288 290 291 286 282 287 286 270 252 239 241 245 248 250 249 248 247 248 248 248 246 247 250 250 249 249 249 248 247 246 244 241 238 239 240
242 247 251 255 254 256 254 252 256 271 293 280 277 280 280 279 280 283 281 281 284 282 275 282 281 279 274 275 278 280 282 281 292 299 291 289 292 293 291 288 288 289 285 277 277 282 288 289 287 285 284 280 270 259 246 249 247 245 245 247 248 248 248 248 248 247 246 245 244 243 240 238 236 236
239 240 246 250 255 257 252 234 228 239 248 249 265 276 278 279 277 278 286 289 287 287 289 288 291 287 286 284 282 286 293 299 294 294 293 290 294 295 293 289 286 289 288 287 282 281 283 285 286 283 283 281 274 272 271 274 278 281 277 268 259 250 246 248 248 247 245 243 242 241 239 237 235 234
244 245 245 252 252 241 227 227 223 233 232 242 240 244 257 272 278 283 283 282 283 288 292 293 291 288 290 287 289 293 297 294 302 303 299 295 296 297 298 297 295 283 289 287 289 284 282 283 280 277 276 278 272 273 276 279 275 270 267 265 264 262 258 252 248 246 244 243 241 240 238 236 233 232
243 247 255 261 276 272 266 265 221 211 223 229 230 232 241 246 251 253 265 273 279 282 287 287 287 290 287 290 292 294 295 300 304 301 295 293 297 296 294 293 293 300 297 295 291 285 283 278 279 282 281 276 276 275 275 275 270 268 268 265 262 260 256 252 251 249 245 242 240 239 238 235 233 230
246 251 255 261 256 264 164 231 256 261 240 213 216 229 231 237 240 241 234 236 251 275 276 280 283 282 290 290 292 300 306 304 298 301 297 299 297 296 293 291 291 294 301 295 285 285 286 286 284 284 276 278 281 283 280 275 270 269 269 268 265 262 258 253 249 247 246 243 240 237 235 234 232 229
249 249 253 257 261 262 248 254 251 263 268 282 261 241 248 258 235 222 228 228 228 238 264 273 277 283 283 286 295 298 298 299 301 302 300 300 295 293 289 291 290 290 289 283 286 283 285 284 284 281 283 284 283 283 285 278 272 274 275 274 272 268 262 256 250 245 243 241 238 235 232 230 229 228
251 251 250 253 258 264 267 280 323 280 288 282 276 277 280 278 286 289 274 242 235 233 246 261 273 282 284 289 297 302 304 300 299 296 290 286 284 283 281 281 280 278 273 270 267 276 284 289 281 278 284 289 291 292 285 273 273 278 280 275 270 266 261 256 249 243 240 239 236 232 230 228 227 226
245 258 259 259 266 275 276 98 90 36 300 285 276 276 276 280 281 283 53 55 335 287 290 289 293 299 311 320 303 298 296 293 286 279 273 274 273 275 283 286 288 286 288 286 285 284 288 287 286 291 292 293 292 287 284 281 283 284 278 273 269 264 260 255 248 241 237 235 233 230 228 227 225 224
27 333 293 301 291 277 277 109 117 132 250 271 279 278 280 283 285 283 263 180 192 191 223 248 257 265 269 272 277 275 269 258 266 284 280 269 274 278 289 295 296 292 294 289 287 287 288 290 291 292 295 295 291 286 287 286 284 281 277 270 266 262 259 254 245 238 234 231 230 227 225 223 222 221
161 127 214 282 286 279 273 116 120 149 231 265 271 276 277 283 282 281 285 269 188 196 216 227 237 244 253 258 259 261 261 257 239 251 260 283 294 292 293 293 296 297 294 288 288 289 286 293 295 297 299 292 279 279 284 287 284 279 272 264 259 259 256 248 238 232 229 227 226 224 222 220 217 216
58 313 246 214 230 264 88 138 146 183 244 262 265 271 279 277 279 282 295 293 295 284 268 258 255 249 241 243 252 252 234 235 228 230 255 285 290 293 295 297 299 296 290 290 305 294 292 295 297 301 305 294 283 259 270 280 287 289 285 283 277 258 243 238 230 227 224 222 221 219 216 216 208 214
211 226 246 209 202 174 138 121 153 213 238 262 270 271 274 275 272 297 298 306 302 295 292 291 290 293 293 286 284 289 289 255 231 254 274 280 290 293 293 293 292 290 291 292 296 290 291 292 291 291 297 302 301 287 292 296 286 288 287 281 280 268 240 226 226 222 220 217 218 215 213 211 202 209
224 235 240 257 157 148 146 173 217 229 226 241 267 265 263 293 2 344 284 283 276 285 288 289 288 286 288 293 293 287 286 285 288 287 289 295 293 293 296 296 292 288 286 290 295 288 287 291 290 294 294 283 281 293 292 288 289 287 282 275 275 269 270 247 228 223 212 215 212 211 210 208 201 202
246 249 241 246 130 142 153 200 218 230 231 230 239 263 346 21 341 292 287 288 283 283 293 293 294 297 297 299 298 296 292 293 297 302 300 299 298 291 288 288 289 288 287 289 289 285 285 282 286 293 288 284 284 279 290 292 288 284 276 271 266 264 254 259 242 237 225 201 209 207 208 205 199 200
244 241 247 109 125 137 178 224 233 231 226 220 236 356 22 341 274 263 272 288 295 293 291 296 295 296 295 294 297 297 302 304 306 305 300 297 294 290 285 280 277 277 281 287 288 285 278 280 281 280 282 282 286 287 281 292 294 293 281 269 270 269 262 255 248 240 236 217 206 189 198 196 195 197
231 245 255 97 120 140 186 208 204 202 198 224 159 166 223 234 245 265 278 275 281 290 290 291 295 295 295 294 293 302 305 305 306 300 294 289 287 287 287 285 280 276 279 281 283 280 276 279 282 272 274 287 292 288 290 286 281 284 280 273 273 283 279 250 249 245 234 216 201 177 186 192 195 193
15 70 87 108 126 155 183 187 182 185 206 205 180 217 224 235 254 240 269 290 292 288 292 294 295 290 293 298 297 302 304 302 296 290 294 297 296 292 288 285 283 281 281 281 281 282 283 285 284 284 283 283 284 287 284 283 285 284 278 277 278 268 266 275 260 255 233 212 204 180 178 184 183 187
92 99 108 136 164 181 185 195 211 234 170 178 198 215 229 244 248 265 281 281 283 289 292 294 293 294 300 300 308 305 296 295 299 303 301 304 303 304 303 302 296 292 289 286 284 286 291 293 288 289 291 289 288 289 284 283 281 281 276 268 261 278 268 254 245 228 232 216 196 188 178 175 179 178
128 146 178 178 199 242 194 232 317 282 138 183 204 221 222 235 254 247 244 261 276 281 286 288 295 301 303 304 299 297 302 299 299 306 307 304 306 307 307 305 300 297 296 294 291 296 305 306 299 297 300 299 297 290 290 289 286 288 289 285 282 283 287 281 258 236 214 206 194 183 179 175 171 172
199 162 159 168 194 202 206 215 221 220 223 246 258 250 240 245 252 272 283 264 253 259 275 291 295 296 299 300 305 306 303 305 310 311 308 309 305 306 307 306 306 306 304 302 304 309 314 314 312 306 301 299 295 299 304 299 303 318 314 313 308 291 284 273 264 222 188 211 193 187 185 178 170 172
224 235 237 253 249 248 243 238 238 225 245 254 257 266 267 250 240 243 252 275 285 289 290 297 301 301 305 306 306 304 306 309 311 312 311 306 301 302 302 304 304 308 311 309 310 313 321 321 316 309 301 299 295 307 316 333 334 332 326 322 315 305 302 273 258 230 192 197 193 191 184 182 175 176
244 235 242 250 245 242 255 257 258 254 266 271 261 260 211 245 260 278 285 277 295 314 302 294 296 305 307 304 307 309 309 312 311 312 306 304 305 303 309 312 313 315 314 312 316 321 325 322 315 310 309 304 255 255 310 334 332 336 333 325 321 317 309 303 272 242 194 199 191 200 185 188 181 180
227 233 239 250 262 271 264 254 253 264 268 258 239 261 259 248 245 242 270 307 322 305 300 299 300 304 304 305 307 309 312 312 312 310 313 311 308 308 312 314 319 322 320 315 315 324 326 323 321 321 322 327 324 243 225 282 322 335 337 334 331 324 319 310 289 284 169 203 200 174 175 190 187 184
236 244 265 277 269 257 252 260 262 256 268 234 247 261 263 274 289 297 302 350 307 301 297 304 306 301 302 305 309 309 310 311 309 317 316 317 318 317 315 319 323 318 316 318 314 323 329 323 323 324 330 336 332 331 339 152 84 340 339 341 343 335 322 319 300 211 204 220 221 208 184 187 195 188
241 241 251 258 250 244 247 261 250 248 262 275 269 274 287 287 299 316 342 305 284 288 301 303 295 302 304 307 308 305 309 313 315 317 315 319 321 320 321 323 322 318 315 318 319 322 326 329 327 327 331 333 333 330 321 330 299 276 352 342 344 340 326 312 313 273 229 246 213 198 203 192 189 182
240 247 255 259 262 270 274 277 262 244 248 261 283 291 283 296 304 308 296 284 288 300 302 297 303 302 308 313 307 312 314 313 315 314 320 321 324 326 326 325 323 320 320 319 322 323 324 327 331 333 334 332 329 330 327 326 333 347 59 358 342 339 331 327 325 325 227 231 243 196 212 205 200 189
269 272 260 260 256 255 256 238 267 266 266 270 279 290 303 302 305 307 306 304 314 311 304 295 296 316 309 302 308 311 314 318 317 319 321 323 324 325 323 325 324 321 321 322 324 324 326 324 333 332 332 329 326 322 322 321 323 325 359 41 359 352 350 329 309 312 273 227 243 249 269 57 350 110
250 263 267 265 268 264 247 241 240 254 264 269 287 319 311 299 306 305 301 308 316 314 298 297 303 301 297 309 313 314 315 316 316 320 324 322 324 322 323 327 317 320 322 320 321 323 324 324 324 330 325 314 304 303 309 301 304 327 343 354 55 45 7 344 335 319 302 246 215 197 202 146 171 182
254 255 250 244 248 226 240 240 244 249 269 280 270 256 284 318 302 297 322 329 317 297 296 299 305 306 308 314 314 319 318 318 319 322 325 321 320 322 320 312 314 328 327 318 318 319 322 320 314 318 317 308 306 296 303 350 353 347 342 342 339 341 37 33 353 327 337 314 239 206 168 167 156 150
259 257 266 256 247 240 246 243 261 263 271 277 289 287 277 263 263 342 292 248 246 268 281 294 309 307 312 315 319 320 317 318 320 325 324 323 323 323 320 321 326 332 328 321 317 316 314 314 321 322 319 322 334 346 347 346 342 340 343 339 336 344 329 243 110 25 31 330 9 184 187 153 152 164
237 257 246 240 274 278 279 271 264 269 276 296 299 312 295 284 279 233 261 278 285 287 302 310 311 314 317 320 324 321 316 319 327 324 321 322 325 323 325 324 328 327 326 320 318 314 318 323 324 327 328 330 337 338 337 338 342 345 342 342 343 330 341 351 348 18 42 46 48 65 346 302 191 180
275 269 269 277 284 269 265 264 274 292 287 282 282 272 269 279 273 270 273 286 295 303 318 310 310 314 320 322 323 320 320 328 324 316 320 323 322 324 322 322 325 329 327 328 326 325 323 328 328 338 339 339 334 331 336 339 348 347 345 332 323 344 353 346 353 7 36 42 34 35 33 52 85 46
254 296 290 284 268 269 264 264 258 261 285 292 281 275 274 262 262 275 280 286 292 312 302 307 315 320 322 327 326 322 326 317 308 318 321 323 327 325 326 326 329 330 329 333 330 328 333 328 334 339 338 337 338 338 332 332 343 349 350 356 353 352 355 356 2 10 17 31 29 30 35 40 48 53